Погода в Тараскуле

Россия / Тюменская область     57°00′27″N   65°24′29″E
темп.,
°C
ветер,
м/с
пор.,
м/с
влажн.,
%
обл.,
%
осадки,
мм/ч
давл.,
гПа
погр.,
м
16 апреля, пт
пт1623:00+13зюз4136348 0.0 1016319
02:00+11з311785 0.0 1016258
05:00+9с5985100 0.0 1018610
08:00+6с5881100 0.1 1022917
11:00+8с6739100 0.1 10241271
14:00+9с56310 0.0 10251662
17:00+9ссв45310 0.0 10261755
20:00+5ссв37430 0.0 1027237
17 апреля, сб
сб1723:00+3всв26530 0.0 1028152
02:000вюв23625 0.0 102853
05:00−1ю22660 0.0 102824
08:00+3юз24510 0.0 1027324
11:00+8зюз35360 0.0 10251481
14:00+10з47316 0.0 10232149
17:00+11з593570 0.0 10202309
20:00+6з385141 0.0 1019192
18 апреля, вс
вс1823:00+5з4125584 0.0 1017338
02:00+4з41268100 0.0 1014641
05:00+3з5137787 0.0 1013752
08:00+2ссз51267100 0.3 10151407
11:00+1с7114574 0.3 10211585
14:00+1с71034100 0.0 10242255
17:00+1с692770 0.0 10272342
20:00−1с59351 0.0 1030882
19 апреля, пн
пн1923:00−3ссв47390 0.0 1032893
02:00−4ссв35401 0.0 10341014
05:00−5ссв35435 0.0 1036734
08:00−4с354063 0.0 10371394
11:00−1с3532100 0.0 10371829
14:00+1с3527100 0.0 10372175
17:00+2с352873 0.0 10372187
20:00−2с12420 0.0 103771
20 апреля, вт
вт2023:00−3юз22482 0.0 103719
02:00−4зюз26535 0.0 1037130
05:00−3з4115121 0.0 1036320
08:00+1з511387 0.0 1035585
11:00+6з693035 0.0 10321331
14:00+8зсз693144 0.0 10301497
17:00+9зсз59353 0.0 10281694
20:00+5зсз3955100 0.0 1028168